Location: Fours
(44.3167°N, 6.7000°E)
Time: 13:23:40
(UTC+00:00)

X-37B - Pass Details

Date: 06 December 2021
Orbit: 334 x 337 km, 45.0° (Epoch: 11 January)

Event Time Altitude Azimuth Distance (km) Brightness Sun altitude
Rises 18:27:29 0° 240° (WSW) 2,096 5.3 -26.6°
Reaches altitude 10° 18:29:31 10° 235° (SW) 1,262 3.9 -27.0°
Enters shadow 18:29:38 11° 234° (SW) 1,212 3.8 -27.0°
